Time,TemperatureF,DewpointF,PressureIn,WindDirection,WindDirectionDegrees,WindSpeedMPH,WindSpeedGustMPH,Humidity,HourlyPrecipIn,Conditions,Clouds,dailyrainin,SoftwareType,DateUTC
2013-07-19 00:44:00,80.0,74.0,30.02,SW,216,0.0,7.0,82,0.00,,,0.00,,2013-07-19 04:44:00,
2013-07-19 00:52:00,80.0,74.0,30.02,SSW,192,1.0,5.0,82,0.00,,,0.00,,2013-07-19 04:52:00,
2013-07-19 01:53:00,80.0,74.0,30.01,WSW,249,2.0,8.0,81,0.00,,,0.00,,2013-07-19 05:53:00,
2013-07-19 02:01:00,80.0,74.0,30.01,WSW,241,3.0,6.0,81,0.00,,,0.00,,2013-07-19 06:01:00,
2013-07-19 02:11:00,80.0,74.0,30.00,SW,233,3.0,9.0,81,0.00,,,0.00,,2013-07-19 06:11:00,
2013-07-19 02:22:00,80.0,74.0,30.00,WSW,240,5.0,7.0,81,0.00,,,0.00,,2013-07-19 06:22:00,
2013-07-19 02:33:00,80.0,74.0,30.00,SW,218,4.0,7.0,82,0.00,,,0.00,,2013-07-19 06:33:00,
2013-07-19 02:43:00,80.0,74.0,30.00,SW,221,4.0,7.0,82,0.00,,,0.00,,2013-07-19 06:43:00,
2013-07-19 02:52:00,80.0,74.0,29.99,SSW,207,3.0,8.0,83,0.00,,,0.00,,2013-07-19 06:52:00,
2013-07-19 03:01:00,80.0,74.0,29.99,South,191,2.0,7.0,83,0.00,,,0.00,,2013-07-19 07:01:00,
2013-07-19 03:32:00,79.0,74.0,29.98,SW,231,1.0,7.0,85,0.00,,,0.00,,2013-07-19 07:32:00,
2013-07-19 03:43:00,79.0,74.0,29.98,SW,218,2.0,5.0,85,0.00,,,0.00,,2013-07-19 07:43:00,
2013-07-19 03:53:00,79.0,74.0,29.98,South,187,2.0,5.0,85,0.00,,,0.00,,2013-07-19 07:53:00,
2013-07-19 04:01:00,79.0,74.0,29.98,SSW,195,3.0,7.0,85,0.00,,,0.00,,2013-07-19 08:01:00,
2013-07-19 04:12:00,79.0,74.0,29.97,SSW,202,2.0,8.0,85,0.00,,,0.00,,2013-07-19 08:12:00,
2013-07-19 04:22:00,78.0,73.0,29.97,SW,217,1.0,6.0,86,0.00,,,0.00,,2013-07-19 08:22:00,
2013-07-19 04:33:00,78.0,73.0,29.97,SSW,206,3.0,7.0,86,0.00,,,0.00,,2013-07-19 08:33:00,
2013-07-19 04:43:00,78.0,73.0,29.97,SW,217,3.0,7.0,86,0.00,,,0.00,,2013-07-19 08:43:00,
2013-07-19 04:52:00,78.0,74.0,29.96,SW,235,3.0,7.0,87,0.00,,,0.00,,2013-07-19 08:52:00,
2013-07-19 05:02:00,78.0,74.0,29.96,SW,216,4.0,9.0,87,0.00,,,0.00,,2013-07-19 09:02:00,
2013-07-19 06:43:00,77.0,73.0,29.96,SSW,205,2.0,9.0,87,0.00,,,0.00,,2013-07-19 10:43:00,
2013-07-19 07:43:00,77.0,73.0,29.96,SW,224,4.0,7.0,87,0.00,,,0.00,,2013-07-19 11:43:00,
2013-07-19 08:44:00,80.0,74.0,29.96,WSW,248,7.0,10.0,82,0.00,,,0.00,,2013-07-19 12:44:00,
2013-07-19 09:53:00,83.0,75.0,29.97,SW,223,7.0,12.0,77,0.00,,,0.00,,2013-07-19 13:53:00,
2013-07-19 10:43:00,84.0,75.0,29.97,West,269,7.0,15.0,75,0.00,,,0.00,,2013-07-19 14:43:00,
2013-07-19 10:52:00,85.0,75.0,29.97,West,267,9.0,18.0,72,0.00,,,0.00,,2013-07-19 14:52:00,
2013-07-19 11:32:00,86.0,75.0,29.96,SW,222,10.0,14.0,71,0.00,,,0.00,,2013-07-19 15:32:00,
2013-07-19 11:43:00,86.0,75.0,29.96,West,261,9.0,15.0,70,0.00,,,0.00,,2013-07-19 15:43:00,
2013-07-19 11:52:00,86.0,75.0,29.96,West,274,10.0,15.0,70,0.00,,,0.00,,2013-07-19 15:52:00,
2013-07-19 12:52:00,88.0,75.0,29.94,SSW,206,11.0,22.0,66,0.00,,,0.00,,2013-07-19 16:52:00,
2013-07-19 13:43:00,88.0,75.0,29.92,West,269,7.0,19.0,66,0.00,,,0.00,,2013-07-19 17:43:00,
2013-07-19 16:43:00,90.0,76.0,29.85,SSW,200,8.0,17.0,63,0.00,,,0.00,,2013-07-19 20:43:00,
2013-07-19 18:42:00,88.0,75.0,29.82,WSW,254,10.0,19.0,65,0.00,,,0.00,,2013-07-19 22:42:00,
2013-07-19 18:52:00,88.0,75.0,29.82,WSW,244,7.0,21.0,65,0.00,,,0.00,,2013-07-19 22:52:00,
2013-07-19 19:43:00,89.0,76.0,29.82,WSW,241,7.0,15.0,65,0.00,,,0.00,,2013-07-19 23:43:00,
2013-07-19 19:52:00,88.0,75.0,29.81,SW,215,4.0,15.0,66,0.00,,,0.00,,2013-07-19 23:52:00,
2013-07-19 20:01:00,88.0,75.0,29.82,WSW,245,7.0,15.0,66,0.00,,,0.00,,2013-07-20 00:01:00,
2013-07-19 20:11:00,88.0,75.0,29.82,SW,221,9.0,15.0,66,0.00,,,0.00,,2013-07-20 00:11:00,
2013-07-19 20:22:00,88.0,76.0,29.82,SW,232,6.0,14.0,67,0.00,,,0.00,,2013-07-20 00:22:00,
2013-07-19 20:32:00,87.0,75.0,29.82,West,260,8.0,16.0,67,0.00,,,0.00,,2013-07-20 00:32:00,
2013-07-19 20:43:00,87.0,75.0,29.83,WSW,243,8.0,18.0,68,0.00,,,0.00,,2013-07-20 00:43:00,
2013-07-19 20:52:00,86.0,75.0,29.83,SSW,192,5.0,12.0,69,0.00,,,0.00,,2013-07-20 00:52:00,
2013-07-19 21:01:00,86.0,75.0,29.83,SSW,211,6.0,13.0,70,0.00,,,0.00,,2013-07-20 01:01:00,
2013-07-19 21:11:00,86.0,75.0,29.83,WSW,249,6.0,14.0,71,0.00,,,0.00,,2013-07-20 01:11:00,
2013-07-19 21:22:00,85.0,75.0,29.83,SSW,213,7.0,11.0,71,0.00,,,0.00,,2013-07-20 01:22:00,
2013-07-19 21:32:00,85.0,75.0,29.83,SW,216,5.0,13.0,72,0.00,,,0.00,,2013-07-20 01:32:00,
2013-07-19 21:52:00,84.0,75.0,29.83,SSW,210,6.0,13.0,74,0.00,,,0.00,,2013-07-20 01:52:00,
2013-07-19 22:02:00,84.0,74.0,29.83,SW,229,7.0,17.0,73,0.00,,,0.00,,2013-07-20 02:02:00,
2013-07-19 22:11:00,84.0,75.0,29.83,SSE,158,8.0,17.0,74,0.00,,,0.00,,2013-07-20 02:11:00,
2013-07-19 22:33:00,84.0,75.0,29.83,SW,235,4.0,9.0,75,0.00,,,0.00,,2013-07-20 02:33:00,
2013-07-19 22:43:00,83.0,75.0,29.83,SSW,202,7.0,12.0,77,0.00,,,0.00,,2013-07-20 02:43:00,
2013-07-19 23:44:00,82.0,74.0,29.83,SW,233,8.0,13.0,78,0.00,,,0.00,,2013-07-20 03:44:00,